Hourly Data Report for December 29, 2004

TORONTO CITY
ONTARIO

43°40'00.000" N
79°24'00.000" W
112.50 m
6158355
71508
XTO

Download Data

Hourly Data (December 2004)
Hourly Data Report for December 29, 2004
TIME
LST
Temp Definition
°C
Dew Point Definition
°C
Rel Hum Definition
%
Precip. Amount Definition
mm

Wind Dir Definition
10's deg

Wind Spd Definition
km/h
Visibility Definition
km
Stn Press Definition
kPa
Hmdx Definition


Wind Chill Definition


Weather Definition


00:00 -0.3 -3.5 79   LegendMM LegendMM LegendMM 100.20     LegendNANA
01:00 0.2 -3.0 79   LegendMM LegendMM LegendMM 100.15     LegendNANA
02:00 0.6 -2.4 80   LegendMM LegendMM LegendMM 100.16     LegendNANA
03:00 0.9 -2.1 80   LegendMM LegendMM LegendMM 100.24     LegendNANA
04:00 1.2 -1.5 82   LegendMM LegendMM LegendMM 100.23     LegendNANA
05:00 1.4 -1.3 82   LegendMM LegendMM LegendMM 100.27     LegendNANA
06:00 1.5 -0.9 84   LegendMM LegendMM LegendMM 100.33     LegendNANA
07:00 1.4 -0.5 87   LegendMM LegendMM LegendMM 100.42     LegendNANA
08:00 1.3 0.0 91   LegendMM LegendMM LegendMM 100.48     LegendNANA
09:00 1.6 0.4 92   LegendMM LegendMM LegendMM 100.57     LegendNANA
10:00 1.8 0.6 92   LegendMM LegendMM LegendMM 100.67     LegendNANA
11:00 2.2 0.9 91   LegendMM LegendMM LegendMM 100.73     LegendNANA
12:00 2.6 0.6 87   LegendMM LegendMM LegendMM 100.69     LegendNANA
13:00 2.6 -0.6 79   LegendMM LegendMM LegendMM 100.68     LegendNANA
14:00 2.5 -1.0 78   LegendMM LegendMM LegendMM 100.72     LegendNANA
15:00 2.4 -1.0 78   LegendMM LegendMM LegendMM 100.79     LegendNANA
16:00 1.6 -0.5 86   LegendMM LegendMM LegendMM 100.86     LegendNANA
17:00 1.6 -0.5 86   LegendMM LegendMM LegendMM 100.92     LegendNANA
18:00 1.7 -0.6 85   LegendMM LegendMM LegendMM 101.00     LegendNANA
19:00 1.9 -1.0 81   LegendMM LegendMM LegendMM 101.08     LegendNANA
20:00 2.0 -1.3 79   LegendMM LegendMM LegendMM 101.10     LegendNANA
21:00 2.0 -1.2 79   LegendMM LegendMM LegendMM 101.16     LegendNANA
22:00 1.7 -1.7 78   LegendMM LegendMM LegendMM 101.19     LegendNANA
23:00 2.1 -2.6 71   LegendMM LegendMM LegendMM 101.19     LegendNANA

Notes on Data Quality.

Legend

  • E = Estimated
  • M = Missing
  • NA = Not Available*
  • [empty] = Indicates an unobserved value
Date modified: